CW1767 Weather Reports


Display with metric or nautical units.
time (UTC)temp
F
wind
direction
speed
MPH
gust
MPH
rain 1hr
in
rain 24hr
in
rain mn
in
humidity
%
barometer
mb
20260903061512 73 320 0.0 0.0 0.00 0.39 0.00 96 1016.1
20260903060009 72 320 0.0 0.0 0.00 0.39 0.00 96 1016.3
20260903054508 72 320 0.0 0.0 0.00 0.39 0.00 96 1016.5
20260903053003 72 320 0.0 0.0 0.00 0.39 0.00 96 1016.6
20260903051601 72 320 0.0 0.0 0.00 0.39 0.00 96 1016.7
20260903050055 72 320 0.0 0.0 0.00 0.39 0.00 96 1016.8
20260903044551 71 320 0.0 0.0 0.00 0.39 0.00 96 1017.1
20260903043101 71 320 0.0 0.0 0.00 0.39 0.00 95 1016.8
20260903041543 71 320 0.0 0.0 0.00 0.39 0.00 95 1016.9
20260903040038 71 320 0.0 0.0 0.00 0.39 0.00 95 1016.5
20260903034539 71 320 0.0 0.0 0.00 0.39 0.39 95 1016.8
20260903033038 71 320 0.0 0.0 0.00 0.39 0.39 95 1016.7
20260903031545 71 320 0.0 0.0 0.00 0.39 0.39 95 1016.7
20260903030036 71 320 0.0 0.0 0.00 0.39 0.39 95 1016.9
20260903024535 71 320 0.0 0.0 0.00 0.39 0.39 95 1017.0
20260903023037 72 320 0.0 0.0 0.00 0.39 0.39 95 1016.8
20260903021535 72 320 0.0 0.0 0.00 0.39 0.39 95 1016.8
20260903020043 72 320 0.0 0.0 0.00 0.39 0.39 95 1017.1
20260903014533 72 320 0.0 0.0 0.00 0.39 0.39 95 1017.0
20260903013041 72 320 0.0 0.0 0.00 0.39 0.39 95 1017.2
20260903011533 72 320 0.0 0.0 0.00 0.39 0.39 95 1017.4
20260903010033 72 320 0.0 0.0 0.00 0.39 0.39 95 1017.0
20260903004534 73 320 0.0 0.0 0.00 0.39 0.39 95 1016.8
20260903003031 73 320 0.0 0.0 0.00 0.39 0.39 95 1016.6
20260903001531 72 320 0.0 0.0 0.00 0.39 0.39 95 1016.7
20260903000132 73 320 0.0 0.0 0.00 0.39 0.39 95 1016.8
20260902234529 73 320 0.0 0.0 0.00 0.39 0.39 94 1017.0
20260902233029 73 320 0.0 0.0 0.00 0.39 0.39 94 1016.9
20260902231528 73 320 0.0 0.0 0.00 0.39 0.39 94 1016.7
20260902230027 73 320 0.0 0.0 0.00 0.39 0.39 94 1016.7
20260902224532 73 320 0.0 0.0 0.00 0.39 0.39 94 1016.7
20260902223048 73 327 0.0 0.0 0.00 0.39 0.39 94 1017.0
20260902221526 73 327 0.0 0.0 0.00 0.39 0.39 94 1017.2
20260902220026 73 327 0.0 0.0 0.00 0.39 0.39 94 1017.0
20260902214627 73 327 0.0 0.0 0.00 0.39 0.39 94 1016.9
20260902213024 73 327 0.0 0.0 0.00 0.39 0.39 94 1017.0
20260902211524 73 327 0.0 1.0 0.00 0.39 0.39 94 1016.9
20260902210024 73 327 0.0 1.0 0.00 0.39 0.39 94 1016.6
20260902204538 72 331 0.0 2.0 0.00 0.39 0.39 94 1017.2
20260902203024 72 275 0.0 3.0 0.01 0.39 0.39 94 1017.0
20260902201522 72 266 0.0 1.0 0.05 0.39 0.39 94 1017.0
20260902200022 71 163 0.0 0.0 0.39 0.39 0.39 93 1016.1
20260902194525 71 109 0.0 3.0 0.39 0.39 0.39 93 1016.5
20260902193019 72 74 2.0 6.0 0.38 0.38 0.38 91 1017.3
20260902191518 74 10 4.0 15.0 0.34 0.34 0.34 88 1019.1
20260902190015 83 74 0.0 2.0 0.00 0.00 0.00 78 1018.5
20260902184513 85 85 0.0 4.0 0.00 0.00 0.00 76 1018.2
20260902183033 85 78 1.0 3.0 0.00 0.00 0.00 75 1017.6
20260902181513 85 66 0.0 1.0 0.00 0.00 0.00 75 1017.9
20260902180012 85 83 0.0 2.0 0.00 0.00 0.00 75 1017.9
20260902174518 85 338 0.0 4.0 0.00 0.00 0.00 74 1018.1
20260902173021 85 66 0.0 4.0 0.00 0.00 0.00 75 1017.6
20260902171509 84 78 0.0 3.0 0.00 0.00 0.00 76 1017.8
20260902170008 84 71 0.0 5.0 0.00 0.00 0.00 79 1017.7
20260902164507 84 70 0.0 4.0 0.00 0.00 0.00 78 1017.9
20260902163007 84 79 1.0 6.0 0.00 0.00 0.00 78 1017.8
20260902161505 84 137 1.0 4.0 0.00 0.00 0.00 80 1017.5
20260902160003 83 97 0.0 6.0 0.00 0.00 0.00 79 1017.7
20260902154604 82 87 1.0 4.0 0.00 0.00 0.00 79 1017.6
20260902153107 81 75 1.0 3.0 0.00 0.00 0.00 82 1017.9
20260902151556 81 69 0.0 4.0 0.00 0.00 0.00 83 1018.0
20260902150053 80 122 0.0 4.0 0.00 0.00 0.00 84 1018.2
20260902144552 80 71 1.0 3.0 0.00 0.00 0.00 84 1018.0
20260902143053 79 78 1.0 5.0 0.00 0.00 0.00 86 1017.8
20260902141550 78 68 0.0 4.0 0.00 0.00 0.00 86 1017.9
20260902140052 78 61 1.0 3.0 0.00 0.00 0.00 87 1017.8
20260902134550 76 78 2.0 5.0 0.00 0.00 0.00 89 1017.7
20260902133048 76 105 1.0 4.0 0.00 0.00 0.00 88 1017.5
20260902131547 77 76 3.0 7.0 0.00 0.00 0.00 87 1017.3
20260902130047 76 79 1.0 4.0 0.00 0.00 0.00 88 1017.4
20260902124547 76 78 1.0 4.0 0.00 0.00 0.00 88 1017.5
20260902123045 76 83 1.0 4.0 0.00 0.00 0.00 89 1017.5
20260902121546 75 80 0.0 3.0 0.00 0.00 0.00 91 1017.4
20260902120048 74 71 1.0 3.0 0.00 0.00 0.00 92 1017.3
20260902114544 74 85 1.0 2.0 0.00 0.00 0.00 92 1017.3
20260902113046 73 79 0.0 2.0 0.00 0.00 0.00 93 1017.3
20260902111541 72 74 0.0 2.0 0.00 0.00 0.00 93 1017.3
20260902110049 72 71 0.0 3.0 0.00 0.00 0.00 93 1017.0
20260902104554 72 61 0.0 1.0 0.00 0.00 0.00 93 1016.8
20260902103057 72 341 0.0 1.0 0.00 0.00 0.00 93 1016.5
20260902101537 72 341 0.0 1.0 0.00 0.00 0.00 93 1016.4
20260902100037 72 341 0.0 2.0 0.00 0.00 0.00 93 1016.3
20260902094536 72 150 0.0 1.0 0.00 0.00 0.00 92 1016.2
20260902093032 73 150 0.0 0.0 0.00 0.00 0.00 92 1016.0
20260902091533 73 150 0.0 0.0 0.00 0.00 0.00 92 1015.8
20260902090037 73 150 0.0 0.0 0.00 0.00 0.00 92 1015.9
20260902084537 73 150 0.0 0.0 0.00 0.00 0.00 92 1015.8
20260902083028 73 154 0.0 0.0 0.00 0.00 0.00 91 1015.7
20260902081527 74 154 0.0 0.0 0.00 0.00 0.00 90 1015.6
20260902080026 74 153 0.0 0.0 0.00 0.00 0.00 90 1015.4
20260902074525 74 154 0.0 0.0 0.00 0.00 0.00 89 1015.6
20260902073027 75 153 0.0 0.0 0.00 0.00 0.00 89 1015.8
20260902071522 75 154 0.0 0.0 0.00 0.00 0.00 88 1015.9
20260902070024 75 160 0.0 1.0 0.00 0.00 0.00 88 1015.6
20260902064521 75 150 0.0 1.0 0.00 0.00 0.00 87 1015.7
20260902063041 75 126 0.0 2.0 0.00 0.00 0.00 86 1015.9